Zurück zum Katalog

COSMOS 2251 DEB

AktivLEO
NORAD 47045·DEBRIS·🇷🇺 Russia

Gestartet Jun 16, 1993 von Plesetsk Cosmodrome

Loading…

Nächste Überflüge (nächste 24 Stunden)

TLE

AlterndSource: Space-Track

Epoche: Sep 10, 2026, 02:19 UTC

1 47045U 93036BWZ 26253.09704366  .00000094  00000-0  38710-4 0  9990
2 47045  74.0606   9.2851 0028051  82.5580  92.7421 14.39019571117086

Verfolge COSMOS 2251 DEB in Echtzeit mit AllMySat

Download on the App Store